Date String (YYYY-MM-DD hh:mm:ss) UTC,Instrument flags,Ambient pressure (hPa),Sample flow (lpm),Bypass flow (lpm),Sample temperature (°C),Ambient temperature (°C),ASC tube jacket temperature (°C),LED temperature (°C),Box temperature (°C),Sample RH (%),Span deviation,Mass concentration (μg/m³),Mass concentration (μg/m³),Mass concentration (μg/m³)
DateTimeUTC,F1_M11,P_M11,Q1_M11,Q2_M11,T1_M11,T2_M11,T3_M11,T4_M11,T5_M11,U1_M11,ZSPAN_M11,X0_M11,X2_M11,X1_M11
2022-03-13 15:00:00,,0821.2,4.99,0.00,23.2,22.5,00.0,32.1,24.9,12.6,0000.0,0004.44,0002.03,0001.51
2022-03-13 15:01:00,,0821.1,5.00,0.00,23.2,22.5,00.0,32.1,24.9,12.7,0000.0,0004.91,0002.18,0001.64
2022-03-13 15:02:00,,0821.1,4.99,0.00,23.2,22.5,00.0,32.1,25.0,13.2,0000.0,0005.59,0002.35,0001.76
2022-03-13 15:03:00,,0821.1,5.00,0.00,23.2,22.5,00.0,32.1,25.0,13.3,0000.0,0006.95,0002.52,0001.89
2022-03-13 15:04:00,,0821.0,5.00,0.00,23.2,22.5,00.0,32.1,25.0,13.4,0000.0,0007.26,0002.63,0001.98
2022-03-13 15:05:00,,0821.0,5.00,0.00,23.2,22.5,00.0,32.1,25.0,13.6,0000.0,0007.93,0002.77,0002.07
2022-03-13 15:06:00,,0821.1,5.01,0.00,23.2,22.5,00.0,32.1,25.0,13.5,0000.0,0008.63,0002.86,0002.14
2022-03-13 15:07:00,,0821.1,4.98,0.00,23.2,22.6,00.0,32.1,25.0,13.6,0000.0,0008.53,0002.89,0002.18
2022-03-13 15:08:00,,0821.0,5.00,0.00,23.2,22.6,00.0,32.1,25.0,13.2,0000.0,0008.31,0002.89,0002.19
2022-03-13 15:09:00,,0821.1,5.00,0.00,23.2,22.6,00.0,32.1,25.0,13.0,0000.0,0008.20,0002.92,0002.21
2022-03-13 15:10:00,,0821.0,4.99,0.00,23.2,22.6,00.0,32.1,25.0,12.8,0000.0,0008.16,0002.93,0002.22
2022-03-13 15:11:00,,0821.0,5.00,0.00,23.2,22.5,00.0,32.1,25.0,12.5,0000.0,0008.12,0002.94,0002.22
2022-03-13 15:12:00,,0821.0,4.99,0.00,23.2,22.5,00.0,32.1,25.0,12.7,0000.0,0007.95,0002.92,0002.21
2022-03-13 15:13:00,,0821.0,5.01,0.00,23.2,22.5,00.0,32.1,25.0,12.3,0000.0,0007.72,0002.90,0002.21
2022-03-13 15:14:00,,0821.1,5.00,0.00,23.2,22.5,00.0,32.1,24.9,12.0,0000.0,0006.76,0002.88,0002.20
2022-03-13 15:15:00,,0821.0,5.01,0.00,23.2,22.5,00.0,32.1,24.9,12.1,0000.0,0007.23,0002.96,0002.18
2022-03-13 15:16:00,,0821.1,5.00,0.00,23.2,22.5,00.0,32.1,25.0,11.9,0000.0,0006.74,0002.94,0002.16
2022-03-13 15:17:00,,0821.1,5.00,0.00,23.2,22.5,00.0,32.1,25.0,11.9,0000.0,0007.49,0002.96,0002.13
2022-03-13 15:18:00,,0821.1,4.99,0.00,23.2,22.5,00.0,32.1,25.0,11.8,0000.0,0008.06,0003.03,0002.12
2022-03-13 15:19:00,,0821.1,5.01,0.00,23.2,22.5,00.0,32.1,24.9,11.4,0000.0,0008.35,0003.11,0002.11
2022-03-13 15:20:00,,0821.1,4.98,0.00,23.2,22.5,00.0,32.1,25.0,11.3,0000.0,0008.57,0003.12,0002.09
2022-03-13 15:21:00,,0821.1,5.00,0.00,23.2,22.5,00.0,32.1,25.0,11.4,0000.0,0009.31,0003.14,0002.08
2022-03-13 15:22:00,,0821.0,5.01,0.00,23.2,22.5,00.0,32.1,25.0,11.5,0000.0,0009.53,0003.17,0002.07
2022-03-13 15:23:00,,0821.0,5.00,0.00,23.2,22.5,00.0,32.1,25.0,11.3,0000.0,0009.65,0003.19,0002.07
2022-03-13 15:24:00,,0821.0,4.99,0.00,23.2,22.6,00.0,32.1,25.0,11.2,0000.0,0009.65,0003.18,0002.05
2022-03-13 15:25:00,,0821.0,4.99,0.00,23.2,22.6,00.0,32.1,25.0,11.3,0000.0,0009.72,0003.20,0002.05
2022-03-13 15:26:00,,0821.0,5.02,0.00,23.2,22.6,00.0,32.1,25.0,11.5,0000.0,0009.51,0003.17,0002.04
2022-03-13 15:27:00,,0821.0,5.00,0.00,23.3,22.6,00.0,32.1,25.1,11.5,0000.0,0009.39,0003.15,0002.05
2022-03-13 15:28:00,,0821.0,4.99,0.00,23.3,22.6,00.0,32.2,25.1,11.5,0000.0,0008.86,0003.13,0002.05
2022-03-13 15:29:00,,0821.0,4.99,0.00,23.3,22.7,00.0,32.2,25.1,11.5,0000.0,0007.80,0003.03,0002.03
2022-03-13 15:30:00,,0821.0,5.00,0.00,23.3,22.7,00.0,32.2,25.1,11.4,0000.0,0007.93,0002.90,0002.02
2022-03-13 15:31:00,,0821.0,5.01,0.00,23.3,22.7,00.0,32.2,25.1,11.3,0000.0,0007.82,0002.90,0002.02
2022-03-13 15:32:00,,0821.0,5.00,0.00,23.4,22.7,00.0,32.2,25.2,10.9,0000.0,0007.13,0002.86,0001.98
2022-03-13 15:33:00,,0821.0,4.99,0.00,23.4,22.8,00.0,32.2,25.2,10.7,0000.0,0006.64,0002.77,0001.92
2022-03-13 15:34:00,,0821.0,5.01,0.00,23.4,22.8,00.0,32.2,25.2,10.6,0000.0,0006.71,0002.63,0001.86
2022-03-13 15:35:00,,0821.0,4.99,0.00,23.4,22.8,00.0,32.2,25.3,10.8,0000.0,0006.52,0002.53,0001.80
2022-03-13 15:36:00,,0821.0,5.00,0.00,23.5,22.8,00.0,32.3,25.3,10.8,0000.0,0006.33,0002.42,0001.73
2022-03-13 15:37:00,,0821.0,5.01,0.00,23.5,22.9,00.0,32.3,25.3,10.5,0000.0,0006.51,0002.30,0001.65
2022-03-13 15:38:00,,0821.0,5.00,0.00,23.5,22.9,00.0,32.3,25.3,11.3,0000.0,0006.62,0002.23,0001.59
2022-03-13 15:39:00,,0821.0,5.00,0.00,23.5,22.9,00.0,32.3,25.3,11.3,0000.0,0006.04,0002.16,0001.53
2022-03-13 15:40:00,,0821.0,5.00,0.00,23.5,22.9,00.0,32.3,25.4,11.3,0000.0,0005.91,0002.08,0001.47
2022-03-13 15:41:00,,0821.0,5.01,0.00,23.6,23.0,00.0,32.4,25.4,11.5,0000.0,0004.89,0001.99,0001.40
2022-03-13 15:42:00,,0820.9,4.99,0.00,23.6,23.0,00.0,32.4,25.5,11.5,0000.0,0005.01,0001.92,0001.34
2022-03-13 15:43:00,,0821.0,4.99,0.00,23.6,23.0,00.0,32.4,25.5,11.3,0000.0,0005.50,0001.92,0001.35
2022-03-13 15:44:00,,0821.0,5.01,0.00,23.6,23.0,00.0,32.4,25.5,11.6,0000.0,0005.51,0001.93,0001.38
2022-03-13 15:45:00,,0821.0,5.00,0.00,23.6,23.0,00.0,32.4,25.5,11.7,0000.0,0005.11,0002.00,0001.43
2022-03-13 15:46:00,,0821.0,5.01,0.00,23.7,23.0,00.0,32.5,25.5,11.8,0000.0,0005.24,0002.08,0001.50
2022-03-13 15:47:00,,0821.0,5.00,0.00,23.7,23.0,00.0,32.5,25.5,11.8,0000.0,0005.50,0002.18,0001.57
2022-03-13 15:48:00,,0820.8,4.99,0.00,23.7,23.0,00.0,32.5,25.5,11.8,0000.0,0005.19,0002.29,0001.65
2022-03-13 15:49:00,,0820.8,5.00,0.00,23.7,23.1,00.0,32.5,25.5,11.8,0000.0,0005.58,0002.33,0001.72
2022-03-13 15:50:00,,0820.8,4.99,0.00,23.7,23.1,00.0,32.5,25.5,12.1,0000.0,0006.38,0002.38,0001.77
2022-03-13 15:51:00,,0820.9,5.01,0.00,23.7,23.1,00.0,32.5,25.6,12.4,0000.0,0007.24,0002.51,0001.85
2022-03-13 15:52:00,,0821.0,4.99,0.00,23.8,23.1,00.0,32.6,25.6,11.9,0000.0,0007.51,0002.59,0001.91
2022-03-13 15:53:00,,0821.0,5.00,0.00,23.8,23.1,00.0,32.6,25.6,11.8,0000.0,0007.37,0002.63,0001.95
2022-03-13 15:54:00,,0820.9,5.00,0.00,23.8,23.1,00.0,32.6,25.6,11.9,0000.0,0007.72,0002.65,0002.00
2022-03-13 15:55:00,,0821.0,5.02,0.00,23.8,23.1,00.0,32.6,25.6,11.5,0000.0,0008.01,0002.69,0002.03
2022-03-13 15:56:00,,0821.0,5.00,0.00,23.8,23.1,00.0,32.6,25.5,11.6,0000.0,0008.02,0002.73,0002.07
2022-03-13 15:57:00,,0821.0,5.00,0.00,23.8,23.1,00.0,32.6,25.5,11.2,0000.0,0008.36,0002.74,0002.07
2022-03-13 15:58:00,,0821.0,4.99,0.00,23.7,23.1,00.0,32.6,25.5,11.3,0000.0,0008.62,0002.77,0002.06
2022-03-13 15:59:00,,0821.0,5.01,0.00,23.7,23.1,00.0,32.6,25.5,11.2,0000.0,0008.64,0002.79,0002.07
